TimeMST,TemperatureF,Dew PointF,Humidity,Sea Level PressureIn,VisibilityMPH,Wind Direction,Wind SpeedMPH,Gust SpeedMPH,PrecipitationIn,Events,Conditions,WindDirDegrees,DateUTC
12:28 AM,24.8,21.2,86,29.83,4.0,WNW,5.8,-,0.00,Snow,Light Snow,300,2013-02-24 07:28:00
12:39 AM,24.8,21.2,86,29.83,2.0,West,4.6,-,0.00,Snow,Light Snow,280,2013-02-24 07:39:00
12:48 AM,24.8,21.2,86,29.83,1.2,Calm,Calm,-,0.00,Snow,Light Snow,0,2013-02-24 07:48:00
12:53 AM,24.1,21.9,91,29.87,1.2,WNW,3.5,-,0.00,Snow,Light Snow,290,2013-02-24 07:53:00
1:01 AM,23.0,23.0,100,29.84,1.0,West,4.6,-,0.01,Snow,Light Snow,270,2013-02-24 08:01:00
1:08 AM,23.0,23.0,100,29.84,1.5,WSW,4.6,-,0.01,Snow,Light Snow,250,2013-02-24 08:08:00
1:13 AM,23.0,23.0,100,29.84,3.0,West,3.5,-,0.01,Snow,Light Snow,260,2013-02-24 08:13:00
1:20 AM,23.0,23.0,100,29.84,9.0,Calm,Calm,-,0.01,,Overcast,0,2013-02-24 08:20:00
1:53 AM,23.0,19.9,88,29.87,10.0,NNE,5.8,-,0.01,,Overcast,30,2013-02-24 08:53:00
2:53 AM,23.0,19.9,88,29.87,10.0,North,3.5,-,N/A,,Overcast,350,2013-02-24 09:53:00
3:53 AM,23.0,21.0,92,29.89,10.0,Calm,Calm,-,N/A,,Overcast,0,2013-02-24 10:53:00
4:53 AM,21.9,19.0,89,29.92,10.0,Calm,Calm,-,N/A,,Overcast,0,2013-02-24 11:53:00
5:53 AM,21.0,19.0,92,29.95,10.0,North,9.2,-,N/A,,Overcast,350,2013-02-24 12:53:00
6:33 AM,19.4,19.4,100,29.87,2.5,North,8.1,-,0.00,Snow,Light Snow,350,2013-02-24 13:33:00
6:41 AM,19.4,19.4,100,29.87,4.0,North,6.9,-,0.00,Snow,Light Snow,350,2013-02-24 13:41:00
6:53 AM,19.0,18.0,96,29.96,9.0,North,4.6,-,0.00,,Overcast,350,2013-02-24 13:53:00
7:53 AM,19.0,17.1,92,29.97,10.0,North,6.9,-,0.00,,Overcast,360,2013-02-24 14:53:00
8:53 AM,21.0,19.9,96,29.98,9.0,NW,3.5,-,N/A,,Overcast,320,2013-02-24 15:53:00
9:09 AM,21.2,19.4,93,29.90,2.5,NW,4.6,-,0.00,Snow,Light Snow,320,2013-02-24 16:09:00
9:18 AM,21.2,19.4,93,29.90,3.0,NW,4.6,-,0.00,Snow,Light Snow,310,2013-02-24 16:18:00
9:53 AM,23.0,21.0,92,29.99,3.0,NNW,3.5,-,0.00,Snow,Light Snow,340,2013-02-24 16:53:00
10:12 AM,23.0,21.2,93,29.91,3.0,NNW,3.5,-,0.00,Snow,Light Snow,330,2013-02-24 17:12:00
10:53 AM,24.1,21.0,88,29.99,2.5,North,5.8,-,0.00,Snow,Light Snow,360,2013-02-24 17:53:00
11:06 AM,24.8,21.2,86,29.91,3.0,North,9.2,-,0.00,Snow,Light Snow,350,2013-02-24 18:06:00
11:53 AM,26.1,21.9,84,29.99,10.0,NNW,6.9,-,0.00,,Overcast,340,2013-02-24 18:53:00
12:53 PM,27.0,23.0,85,29.98,6.0,NNW,9.2,-,0.00,Snow,Light Snow,330,2013-02-24 19:53:00
1:17 PM,26.6,24.8,93,29.90,2.5,NW,9.2,-,0.00,Snow,Light Snow,320,2013-02-24 20:17:00
1:48 PM,28.4,24.8,86,29.90,7.0,NW,9.2,-,0.00,,Overcast,320,2013-02-24 20:48:00
1:53 PM,28.0,24.1,85,29.98,10.0,WNW,8.1,-,0.00,,Overcast,300,2013-02-24 20:53:00
2:53 PM,30.0,25.0,82,29.99,10.0,WNW,9.2,-,N/A,,Overcast,290,2013-02-24 21:53:00
3:53 PM,32.0,21.9,66,29.99,10.0,WNW,12.7,-,N/A,,Mostly Cloudy,290,2013-02-24 22:53:00
4:53 PM,32.0,21.2,64,30.03,10.0,NW,8.1,-,N/A,,Mostly Cloudy,320,2013-02-24 23:53:00
5:53 PM,32.0,19.0,59,30.06,10.0,NNW,10.4,-,N/A,,Mostly Cloudy,340,2013-02-25 00:53:00
6:53 PM,30.9,18.0,59,30.11,10.0,North,11.5,-,N/A,,Partly Cloudy,350,2013-02-25 01:53:00
7:53 PM,28.0,19.0,69,30.14,10.0,NW,9.2,-,N/A,,Clear,320,2013-02-25 02:53:00
8:53 PM,26.1,18.0,71,30.16,10.0,Calm,Calm,-,N/A,,Clear,0,2013-02-25 03:53:00
9:53 PM,26.1,17.1,69,30.17,10.0,WNW,5.8,-,N/A,,Clear,300,2013-02-25 04:53:00
10:53 PM,25.0,17.1,72,30.18,10.0,Calm,Calm,-,N/A,,Clear,0,2013-02-25 05:53:00
11:53 PM,26.1,16.0,66,30.17,10.0,SSW,3.5,-,N/A,,Clear,210,2013-02-25 06:53:00